A/2019 O3

Japanese version
Home page
Updated on April 25, 2020

---------------------------------------------------------------------

* Profile

Discovery Date July 26, 2019
Magnitude 19.30 mag
Discoverer Q.-Z. Ye (Palomar Mountain--ZTF)

* Pictures

* Orbital Elements

Epoch 2021 Mar. 7.0 TT = JDT 2459280.5
T 2021 Mar. 7.74608 TT                                  Rudenko
q   8.8199536            (2000.0)            P               Q
z  -0.0002482      Peri.   60.03612     +0.25500846     -0.43675662
 +/-0.0000033      Node   300.38081     -0.73862709     +0.48778290
e   1.0021894      Incl.   89.81507     +0.62401980     +0.75585150
H   10.0
From 102 observations 2019 May 14-2020 Apr. 9, mean residual 0".4.

* Magnitudes Graph

        H = 8.0  G = 0.15

---------------------------------------------------------------------

The orbital elements are published on M.P.E.C. 2020-G91.
The magnitudes graphs are made with Comet for Windows.

---------------------------------------------------------------------

Copyright(C) Seiichi Yoshida (comet@aerith.net). All rights reserved.